STARLINK-1171, 45062

Orbit data source: Space-Track

STARLINK-1171, 45062 is a payload satellite owned by SpaceX/Seattle (US) in LEO that was launched on Wed, 29 Jan 2020 UTC via an FALCON 9 launch vehicle from the Air Force Eastern Test Range (AFETR). Payloads include a variety of satellites, spacecraft, and rockets equipped with specific instruments for various scientific and technological missions. These include communications satellites like Starlink; space stations such as the ISS; scientific satellites like the Hubble; Earth observation satellites from companies like Planet Labs, Umbra, and HawkEye 360; GPS; miniature CubeSats for education and research; and military/defense satellites.

Loading next visibility...
STARLINK-1171 details
Identifier
45062, 2020-006U
Orbit
LEO
Last TLE update12 hours ago
Origin
Flag of USSpaceX/Seattle (US)
ManufacturerSpaceX/Seattle
MissionOperational Commercial Communications
Bus & MotorSTARLINK, Unknown motor
Mass260 kg wet, ~248 kg dry
Launch date (UTC)
2020-01-29 (5 years ago)
Launch vehicle
FALCON 9
Launch site
Air Force Eastern Test Range (AFETR)
Object type
Payload
Rocket body
Debris
Shape & HBRBox + 1 Pan, 8.86 m
Radar Cross Section13.562 m², Large (>1 m²)

Expand to show TLE details & history

TLE from 12 hours ago
0 STARLINK-1171
1 45062U 20006U   24338.83907011  .00002838  00000-0  20935-3 0  9997
2 45062  53.0528 195.4564 0001370  90.1973 269.9173 15.06402464267000
Epoch: 2024-12-03T20:08Z
Definitive object data (Epoch: 2024-12-03T20:08:15.657Z)
Latitude-0.00002°
Longitude-179.75167°
Altitude548.084 km
Speed7.589 km/s
True Right ascension13h 01m 49s
True Declination0° 00' 00"
Sunlit
Object was in daylight at TLE epoch
Visualization TLE readout
Latitude-52.67841°
Longitude76.79477°
Altitude566.433 km
Speed7.577 km/s
Apparent Right ascension19h 37m 36s
Apparent Declination-85° 39' 19"
Sunlit
Object is in daylight
Visualization observer readout
Local Sidereal Time06:20:58
Azimuth181.981° SSW
Elevation-44.004°
Doppler factor1
Orbital elements
Apogee altitude548.424 km
Perigee altitude546.526 km
Semi-major axis6,925.612 km
Eccentricity0.000137
Inclination53.0528°
RAAN195.4564°
Arg. of periapsis90.1973°
True anomaly269.9016°
Mean anomaly269.9173°
Eccentric anomaly269.90945°
Mean motion3.76579 °/min
BSTAR0.00020935
Orbital period95.6 mins
Loading maneuver chart data...
Loading historical data...
Loading historical data...
Loading historical data...
Loading historical data...
Loading historical data...
Loading historical data...
Loading historical data...

STARLINK-1171 Visibility forecast

Observer location: undefined°, undefined

Span
Click to sort rows by Start time (UTC) header in descending order
Start Az.
Max El. time (UTC)
Max El. Az.
Max El.
End time (UTC)
End Az.
7 mins2024-12-04 16:59:51.569Z213.762° SW2024-12-04 17:03:51.569Z113.7° SE39.549°2024-12-04 17:06:51.569Z59.412° ENE
5 mins2024-12-04 18:40:51.569Z285.324° WNW2024-12-04 18:42:51.569Z322.694° NNW23.727°2024-12-04 18:45:51.569Z23.934° NE
6 mins2024-12-04 23:42:51.569Z324.899° NNW2024-12-04 23:44:51.569Z22.546° NE40.196°2024-12-04 23:48:51.569Z115.898° SE
4 mins2024-12-05 01:22:51.569Z258.178° W2024-12-05 01:23:51.569Z239.739° WSW18.161°2024-12-05 01:26:51.569Z189.172° SSW
|